Location: Argonnex
(45.9500°N, 6.1333°E)
Time: 06:15:58
(UTC+00:00)

Meteor 1-24 Rocket - Pass Details

Date: 28 January 2023
Orbit: 790 x 927 km, 81.3° (Epoch: 21 March)

Event Time Altitude Azimuth Distance (km) Brightness Sun altitude
Rises 17:01:57 0° 190° (S) 3,489 7.4 -5.2°
Reaches altitude 10° 17:04:26 10° 191° (SSW) 2,535 6.7 -5.6°
Maximum altitude 17:10:13 84° 280° (W) 870 3.9 -6.5°
Drops below altitude 10° 17:15:49 10° 10° (N) 2,459 5.9 -7.5°
Sets 17:18:11 0° 11° (N) 3,378 6.5 -7.9°
